DECAYED

FENGYUN 1C DEB, 30738 (Decayed)

Orbit data source: Space-Track

FENGYUN 1C DEB, 30738 was space debris in SSO originally from a launch on Mon, 10 May 1999 UTC launched from the Taiyaun Space Center, China (TSC). Fengyun 1C debris stems from the Chinese weather satellite Fengyun-1C, which was intentionally destroyed by a Chinese anti-satellite missile in 2007. This event dramatically increased the amount of space debris, with thousands of trackable fragments posing hazards to satellites and human spaceflight. The Fengyun 1C debris cloud has become a focal point in discussions about space sustainability and the need for international regulations to prevent the creation of new debris.

Not visible in the next 10 days
Identifier
30738, 1999-025ASY
Orbit
Decayed
Country
Flag of CNCN / PRC
Related business
Manufacturer
Unknown
Mission
Decayed spacecraft
Bus & Motor
Unknown
Mass
Unknown
Launch date (UTC)
1999-05-10 (27 years ago)
Launch vehicle
Unknown
Launch site
Taiyaun Space Center, China (TSC)
Object type
Payload
Rocket body
Debris
Shape & HBR
Unknown shape, 0.1 m
Radar Cross Section
Medium (>0.1 m² and <1 m²)

Expand to show TLE details & history
Last TLE update: 11 months ago

TLE from 11 months ago
0 FENGYUN 1C DEB
1 30738U 99025ASY 25271.92713637  .02240794  00000-0  29727-1 0  9997
2 30738  99.3293  69.0255 0029234 305.9179  53.9356 15.54483819965154
Epoch: 2025-09-28T22:15Z
TLE epoch observation values (Epoch: 2025-09-28T22:15:04.582Z)
Latitude
-0.00002°
Longitude
87.31822°
Altitude
395.092 km
Speed
7.68 km/s
True Right ascension
04h 36m 06s
True Declination
0° 00' 00"
Sunlit
Object was in full shadow at epoch
Visualization orbit readout
Latitude
Unknown
Longitude
Unknown
Altitude
Unknown
Speed
Unknown
Apparent Right ascension
Unknown
Apparent Declination
Unknown
Sunlit
N/A
Visualization observer readout
Local Sidereal Time
08:05:42
Azimuth
Unknown
Elevation
Unknown
Doppler factor
Unknown
Orbital elements
Apogee altitude
420.485 km
Perigee altitude
380.85 km
Semi-major axis
6,778.805 km
Eccentricity
0.00292
Inclination
99.3293°
RAAN
69.0255°
Arg. of periapsis
305.9179°
True anomaly
54.20698°
Mean anomaly
53.9356°
Eccentric anomaly
54.07123°
Mean motion
3.88878 °/min
Orbital period
92.57 mins
BSTAR
0.029727
Loading maneuver chart data...
Computing Atmospheric mass density...

Documentation

Showing up to 5 results
|